Regional Weather Roundup
Issued by NWS Kansas City/Pleasant Hill, MO

Home | Current Version | Previous Version | Text Only | Print | Product List | Glossary On
Versions: 1 2 3 4 5 6 7 8 9 10 11 12 13 14 15 16 17 18 19 20 21 22 23 24 25 26 27 28 29 30 31 32 33 34 35 36 37 38 39 40 41 42 43 44 45 46 47 48 49 50
000
ASUS43 KEAX 182010
RWREAX

WEATHER ROUNDUP FOR EASTERN KANSAS AND NORTHWEST MISSOURI
NATIONAL WEATHER SERVICE KANSAS CITY/PLEASANT HILL MO
200 PM CST THU DEC 18 2014

KSZ040-057-103>105-MOZ028-029-037-043-182100-
...KANSAS CITY METROPOLITAN AREA...

CITY           SKY/WX    TMP DP  RH WIND       PRES   REMARKS
K.C. INTL      CLOUDY    32  28  85 NE6       30.19F WCI  26
K.C. DOWNTOWN  CLOUDY    33  28  81 E5        30.20S WCI  29
LEES SUMMIT    CLOUDY    33  29  85 NE3       30.19F
OLATHE - IXD   CLOUDY    33  30  88 NE3       30.18F FOG
OLATHE - OJC   CLOUDY    33  30  88 E5        30.17F FOG     WCI  29
LAWRENCE       CLOUDY    33  29  85 NE3       30.20F FOG

$$

MOZ001>008-011>017-020>025-030>033-038>040-044>046-053-054-182100-
...NORTHERN AND CENTRAL MISSOURI...

CITY           SKY/WX    TMP DP  RH WIND       PRES   REMARKS
ST. JOSEPH     LGT SNOW  31  28  89 N5        30.21F FOG     WCI  26
MOSBY          CLOUDY    32  30  93 CALM      30.20F
WARRENSBURG    CLOUDY    32  32 100 NE5       30.20S FOG     WCI  27
WHITEMAN AFB   NOT AVBL
CLINTON        CLOUDY    36  34  93 E3        30.19S FOG
SEDALIA        CLOUDY    34  30  85 E8        30.19F WCI  27
WARSAW         NOT AVBL
MARSHALL       CLOUDY    34  32  93 E7        30.21F FOG     WCI  28
CHILLICOTHE      N/A     32  27  81 NE3       30.23F
KIRKSVILLE     CLOUDY    30  26  85 E3        30.22S

$$

MOZ041-047>049-056>058-063>065-088>090-097-182100-
...EASTERN AND SOUTHERN MISSOURI...

CITY           SKY/WX    TMP DP  RH WIND       PRES   REMARKS
ST. LOUIS INTL CLOUDY    36  27  69 CALM      30.23F
SPIRIT OF STL  CLOUDY    32  29  88 E3        30.22F FOG
COLUMBIA       LGT SNOW  33  30  88 E6        30.19F FOG     WCI  28
JEFFERSON CITY CLOUDY    34  31  88 E6        30.21F WCI  29
ROLLA          CLOUDY    33  31  92 E3        30.16F FOG
LEBANON        CLOUDY    36  32  87 CALM      30.15F
OSAGE BEACH    CLOUDY    36  30  80 E5        30.18S WCI  32
SPRINGFIELD    CLOUDY    37  35  92 SW3       30.14F
BRANSON        CLOUDY    39  37  93 CALM      30.15F
NEVADA         CLOUDY    36  34  93 CALM      30.18S FOG
JOPLIN         CLOUDY    39  36  89 W6        30.16F WCI  35
WEST PLAINS    CLOUDY    37  31  78 SE5       30.16F WCI  33

$$

IAZ060-094-KSZ022-034>040-054-083-096-NEZ052-066-093-182100-
...KANSAS...SOUTHEAST NEBRASKA AND IOWA...

CITY           SKY/WX    TMP DP  RH WIND       PRES   REMARKS
TOPEKA         CLOUDY    34  30  85 CALM      30.20F FOG
MANHATTAN      CLOUDY    33  29  85 CALM      30.19F
EMPORIA        CLOUDY    32  30  92 N3        30.16F FOG
CHANUTE        FOG       34  34 100 VRB7      30.18S VSB 1/2 WCI  28
WICHITA        CLOUDY    35  30  82 NW7       30.16F WCI  29
OMAHA          FLURRIES  31  25  78 SE6       30.22F WCI  25
LINCOLN        CLOUDY    31  26  82 CALM      30.20S
FALLS CITY     CLOUDY    30  26  85 E6        30.20F WCI  24
LAMONI         CLOUDY    29  25  85 VRB3      30.21F
DES MOINES     FLURRIES  31  20  63 CALM      30.23F

$$



USA.gov is the U.S. government's official web portal to all federal, state and local government web resources and services.